Date,TemperatureHighF,TemperatureAvgF,TemperatureLowF,DewpointHighF,DewpointAvgF,DewpointLowF,HumidityHigh,HumidityAvg,HumidityLow,PressureMaxIn,PressureMinIn,WindSpeedMaxMPH,WindSpeedAvgMPH,GustSpeedMaxMPH,PrecipitationSumIn
2013-11-1,34.9,27.0,17.8,24.1,20.0,14.2,89,75,50,30.53,30.21,22,4,25,0.01
2013-11-2,54.9,29.7,13.5,18.3,12.3,3.7,89,57,14,30.61,30.13,14,2,15,0.02
2013-11-3,49.8,32.5,18.0,26.8,17.2,9.3,92,57,24,30.14,29.68,19,3,21,0.00
2013-11-4,39.4,24.5,7.5,22.8,15.1,3.9,90,70,38,30.07,29.93,10,2,15,0.06
2013-11-5,27.1,16.6,4.3,23.5,11.1,-0.4,89,79,52,30.62,30.02,15,3,15,0.03
2013-11-6,31.5,19.0,3.9,17.4,11.1,-0.2,85,72,52,30.82,30.62,16,3,23,0.00
2013-11-7,49.5,28.9,13.5,23.2,16.9,10.2,91,65,31,30.83,30.30,12,2,17,0.01
2013-11-8,48.6,36.9,26.4,20.5,16.8,11.3,69,47,26,30.31,29.97,25,4,32,0.00
2013-11-9,50.5,32.4,23.7,22.1,17.9,16.0,73,58,26,30.43,30.17,9,2,10,0.00
2013-11-10,52.5,33.2,21.9,20.7,17.5,14.4,79,57,24,30.49,30.35,18,2,18,0.00
2013-11-11,51.4,31.6,19.8,21.2,17.2,10.9,85,60,20,30.64,30.44,18,2,18,0.00
2013-11-12,51.1,31.2,19.6,20.5,16.2,8.1,84,59,19,30.76,30.61,10,2,11,0.00
2013-11-13,49.6,31.4,17.2,19.2,14.1,7.9,74,53,20,30.67,30.25,11,2,12,0.00
2013-11-14,43.5,31.8,23.4,26.4,17.9,8.4,90,59,29,30.25,29.93,14,2,14,0.00
2013-11-15,44.6,29.5,18.3,26.6,15.9,6.3,93,60,26,29.93,29.67,19,2,23,0.00
2013-11-16,36.9,26.8,18.5,25.5,20.0,14.0,93,77,50,29.72,29.51,23,4,27,0.07
2013-11-17,36.7,24.9,16.0,19.6,16.6,12.7,89,72,44,30.41,29.68,45,5,47,0.18
2013-11-18,45.1,24.4,12.0,18.9,13.6,7.7,91,68,23,30.60,30.40,6,-2,7,0.01
2013-11-19,44.2,28.1,13.5,27.7,19.1,10.0,90,71,39,30.40,30.04,17,2,20,0.00
2013-11-20,39.9,31.7,27.7,27.7,24.3,21.6,92,75,49,30.05,29.88,8,1,10,0.04
2013-11-21,38.5,27.3,14.7,30.9,24.3,12.0,94,88,71,30.44,29.93,9,1,10,0.13
2013-11-22,29.7,21.1,14.5,23.5,16.9,11.8,91,84,68,30.71,30.44,10,1,12,0.01
2013-11-23,36.7,26.0,20.3,24.6,19.1,14.4,92,76,55,30.70,30.36,8,1,10,0.05
2013-11-24,30.9,26.4,18.1,27.0,23.4,15.4,93,88,81,30.36,30.12,14,3,14,0.01
2013-11-25,32.0,24.4,12.4,22.1,17.2,9.7,92,74,61,30.53,30.17,13,2,14,0.01
2013-11-26,37.6,23.5,13.1,17.6,14.7,8.6,88,71,42,30.62,30.50,14,2,15,0.01
2013-11-27,42.6,21.7,6.4,19.4,12.3,3.2,92,71,31,30.67,30.47,9,1,10,0.00
2013-11-28,46.9,25.5,14.5,21.6,14.5,10.8,88,67,25,30.52,30.32,5,1,6,0.00
2013-11-29,41.5,23.4,11.8,17.4,13.0,8.2,87,67,33,30.58,30.43,14,-2,14,0.00
2013-11-30,39.9,21.1,9.9,15.4,10.0,6.1,87,66,28,30.61,30.48,8,2,8,0.00